Location: Newark
(36.7344°N, 137.0547°E)
Time: 00:04:35
(UTC+00:00)

Envisat - Pass Details

Date: 17 October 2019
Orbit: 764 x 766 km, 98.1° (Epoch: 20 November)

Event Time Altitude Azimuth Distance (km) Brightness Sun altitude
Rises 09:16:42 0° 176° (S) 3,217 6.2 -13.4°
Reaches altitude 10° 09:19:02 10° 180° (S) 2,295 5.5 -13.8°
Maximum altitude 09:24:01 59° 259° (W) 880 3.6 -14.8°
Drops below altitude 10° 09:29:03 10° 339° (NNW) 2,310 5.7 -15.8°
Sets 09:31:24 0° 344° (NNW) 3,240 6.5 -16.3°
